Previsão horária em Barra do Piraí

Hoje, 27 Outubro, Terça-feira

Tempo Temperatura Precipitação Vento Pressão Humidade
00:00 +18°C° 0 mm 0 m/s 724 mmHg 97%
01:00 +17°C° 0 mm 0 m/s 723 mmHg 97%
02:00 +17°C° 0 mm 0 m/s 723 mmHg 97%
03:00 +17°C° 0 mm 0 m/s 722 mmHg 97%
04:00 +20°C° 0 mm 1 m/s 722 mmHg 96%
05:00 +20°C° 0 mm 1 m/s 722 mmHg 96%
06:00 +20°C° 0 mm 1 m/s 722 mmHg 95%
07:00 +22°C° 0 mm 1 m/s 723 mmHg 87%
08:00 +25°C° 0 mm 1 m/s 723 mmHg 79%
09:00 +27°C° 0 mm 1 m/s 723 mmHg 70%
10:00 +29°C° 0 mm 2 m/s 722 mmHg 66%
11:00 +30°C° 0 mm 2 m/s 722 mmHg 61%
12:00 +32°C° 0 mm 2 m/s 721 mmHg 56%
13:00 +32°C° 0.3 mm 2 m/s 721 mmHg 56%
14:00 +32°C° 0.3 mm 1 m/s 720 mmHg 56%
15:00 +32°C° 0.3 mm 1 m/s 720 mmHg 56%
16:00 +30°C° 0.3 mm 1 m/s 720 mmHg 66%
17:00 +28°C° 0.3 mm 1 m/s 720 mmHg 76%
18:00 +26°C° 0.3 mm 1 m/s 720 mmHg 86%
19:00 +25°C° 0.1 mm 1 m/s 720 mmHg 88%
20:00 +22°C° 0.1 mm 0 m/s 721 mmHg 90%
21:00 +21°C° 0.1 mm 0 m/s 721 mmHg 93%
22:00 +21°C° 0 mm 0 m/s 721 mmHg 93%
23:00 +23°C° 0 mm 1 m/s 721 mmHg 94%

Amanhã, 28 Outubro, Quarta-feira

Tempo Temperatura Precipitação Vento Pressão Humidade
00:00 +22°C° 0 mm 1 m/s 720 mmHg 94%
01:00 +22°C° 0 mm 1 m/s 720 mmHg 95%
02:00 +22°C° 0 mm 1 m/s 720 mmHg 95%
03:00 +22°C° 0 mm 1 m/s 720 mmHg 95%
04:00 +22°C° 0 mm 1 m/s 721 mmHg 95%
05:00 +22°C° 0 mm 1 m/s 721 mmHg 94%
06:00 +22°C° 0 mm 1 m/s 721 mmHg 94%
07:00 +25°C° 0 mm 1 m/s 722 mmHg 83%
08:00 +28°C° 0 mm 1 m/s 722 mmHg 73%
09:00 +30°C° 0 mm 1 m/s 722 mmHg 63%
10:00 +32°C° 0 mm 2 m/s 722 mmHg 55%
11:00 +34°C° 0 mm 2 m/s 722 mmHg 47%
12:00 +36°C° 0 mm 3 m/s 722 mmHg 39%
13:00 +36°C° 0 mm 2 m/s 722 mmHg 39%
14:00 +36°C° 0 mm 2 m/s 721 mmHg 38%
15:00 +36°C° 0 mm 2 m/s 721 mmHg 38%
16:00 +32°C° 0 mm 2 m/s 721 mmHg 48%
17:00 +29°C° 0 mm 1 m/s 721 mmHg 58%
18:00 +27°C° 0 mm 1 m/s 721 mmHg 69%
19:00 +25°C° 0 mm 1 m/s 722 mmHg 73%
20:00 +24°C° 0 mm 1 m/s 723 mmHg 77%
21:00 +23°C° 0 mm 1 m/s 723 mmHg 80%
22:00 +23°C° 0 mm 1 m/s 723 mmHg 82%
23:00 +20°C° 0 mm 0 m/s 723 mmHg 85%

Depois de amanhã, 29 Outubro, Quinta-feira

Tempo Temperatura Precipitação Vento Pressão Humidade
00:00 +20°C° 0 mm 0 m/s 723 mmHg 87%
01:00 +20°C° 0 mm 0 m/s 723 mmHg 87%
02:00 +20°C° 0 mm 0 m/s 723 mmHg 88%
03:00 +19°C° 0 mm 0 m/s 723 mmHg 88%
04:00 +20°C° 0 mm 0 m/s 723 mmHg 87%
05:00 +20°C° 0 mm 0 m/s 724 mmHg 85%
06:00 +20°C° 0 mm 0 m/s 724 mmHg 84%
07:00 +23°C° 0 mm 0 m/s 725 mmHg 75%
08:00 +26°C° 0 mm 0 m/s 725 mmHg 66%
09:00 +29°C° 0 mm 0 m/s 726 mmHg 56%
10:00 +32°C° 0 mm 1 m/s 725 mmHg 53%
11:00 +33°C° 0 mm 1 m/s 725 mmHg 50%
12:00 +35°C° 0 mm 2 m/s 725 mmHg 47%
13:00 +34°C° 0.2 mm 2 m/s 725 mmHg 54%
14:00 +31°C° 0.2 mm 3 m/s 724 mmHg 61%
15:00 +29°C° 0.2 mm 4 m/s 724 mmHg 67%
16:00 +27°C° 0.4 mm 3 m/s 724 mmHg 75%
17:00 +25°C° 0.4 mm 3 m/s 724 mmHg 83%
18:00 +22°C° 0.4 mm 3 m/s 724 mmHg 92%
19:00 +23°C° 1.5 mm 2 m/s 725 mmHg 93%
20:00 +22°C° 1.5 mm 1 m/s 726 mmHg 95%
21:00 +22°C° 1.5 mm 1 m/s 726 mmHg 96%
22:00 +22°C° 1 mm 1 m/s 726 mmHg 96%
23:00 +22°C° 1 mm 1 m/s 726 mmHg 96%

30 Outubro, Sexta-feira

Tempo Temperatura Precipitação Vento Pressão Humidade
00:00 +21°C° 1 mm 1 m/s 726 mmHg 96%
01:00 +21°C° 0.2 mm 1 m/s 726 mmHg 96%
02:00 +21°C° 0.2 mm 1 m/s 726 mmHg 96%
03:00 +21°C° 0.2 mm 1 m/s 726 mmHg 96%
04:00 +21°C° 0.1 mm 1 m/s 726 mmHg 96%
05:00 +21°C° 0.1 mm 1 m/s 726 mmHg 97%
06:00 +21°C° 0.1 mm 1 m/s 726 mmHg 97%
07:00 +21°C° 0.1 mm 1 m/s 727 mmHg 96%
08:00 +22°C° 0.1 mm 1 m/s 727 mmHg 96%
09:00 +22°C° 0.1 mm 1 m/s 727 mmHg 95%
10:00 +22°C° 0.3 mm 1 m/s 727 mmHg 95%
11:00 +22°C° 0.3 mm 1 m/s 727 mmHg 96%
12:00 +22°C° 0.3 mm 1 m/s 726 mmHg 96%
13:00 +22°C° 1 mm 1 m/s 726 mmHg 96%
14:00 +22°C° 1 mm 1 m/s 726 mmHg 97%
15:00 +20°C° 1 mm 2 m/s 726 mmHg 97%
16:00 +20°C° 2.7 mm 2 m/s 726 mmHg 97%
17:00 +20°C° 2.7 mm 3 m/s 727 mmHg 98%
18:00 +19°C° 2.7 mm 4 m/s 727 mmHg 98%
19:00 +19°C° 1.8 mm 4 m/s 728 mmHg 97%
20:00 +19°C° 1.8 mm 4 m/s 728 mmHg 97%
21:00 +18°C° 1.8 mm 4 m/s 728 mmHg 97%
22:00 +18°C° 1 mm 3 m/s 728 mmHg 98%
23:00 +18°C° 1 mm 3 m/s 728 mmHg 98%

31 Outubro, Sábado

Tempo Temperatura Precipitação Vento Pressão Humidade
00:00 +18°C° 1 mm 2 m/s 728 mmHg 98%
01:00 +18°C° 1.4 mm 2 m/s 728 mmHg 98%
02:00 +18°C° 1.4 mm 2 m/s 727 mmHg 98%
03:00 +19°C° 1.4 mm 1 m/s 727 mmHg 98%
04:00 +19°C° 0.9 mm 1 m/s 727 mmHg 98%
05:00 +19°C° 0.9 mm 1 m/s 727 mmHg 98%
06:00 +19°C° 0.9 mm 1 m/s 727 mmHg 98%
07:00 +19°C° 0.8 mm 1 m/s 728 mmHg 98%
08:00 +20°C° 0.8 mm 1 m/s 728 mmHg 97%
09:00 +20°C° 0.8 mm 1 m/s 728 mmHg 97%
10:00 +20°C° 0.4 mm 1 m/s 728 mmHg 96%
11:00 +19°C° 0.4 mm 2 m/s 728 mmHg 96%
12:00 +20°C° 0.4 mm 2 m/s 728 mmHg 96%
13:00 +19°C° 0.4 mm 2 m/s 728 mmHg 96%
14:00 +19°C° 0.4 mm 2 m/s 727 mmHg 96%
15:00 +19°C° 0.4 mm 2 m/s 727 mmHg 97%
16:00 +19°C° 0.2 mm 2 m/s 727 mmHg 97%
17:00 +19°C° 0.2 mm 2 m/s 727 mmHg 97%
18:00 +18°C° 0.2 mm 2 m/s 727 mmHg 97%
19:00 +18°C° 0.1 mm 2 m/s 728 mmHg 98%
20:00 +18°C° 0.1 mm 2 m/s 728 mmHg 98%
21:00 +18°C° 0.1 mm 2 m/s 728 mmHg 98%
22:00 +18°C° 0.1 mm 2 m/s 728 mmHg 98%
23:00 +19°C° 0.1 mm 1 m/s 728 mmHg 98%

1 Novembro, Domingo

Tempo Temperatura Precipitação Vento Pressão Humidade
00:00 +19°C° 0.1 mm 1 m/s 728 mmHg 98%
01:00 +19°C° 0.1 mm 1 m/s 727 mmHg 98%
02:00 +19°C° 0.1 mm 1 m/s 727 mmHg 98%
03:00 +19°C° 0.1 mm 1 m/s 727 mmHg 98%
04:00 +19°C° 0.1 mm 1 m/s 727 mmHg 98%
05:00 +19°C° 0.1 mm 1 m/s 727 mmHg 97%
06:00 +17°C° 0.1 mm 0 m/s 727 mmHg 97%
07:00 +19°C° 0.2 mm 1 m/s 727 mmHg 96%
08:00 +20°C° 0.2 mm 1 m/s 727 mmHg 94%
09:00 +20°C° 0.2 mm 1 m/s 728 mmHg 93%
10:00 +20°C° 0.1 mm 2 m/s 728 mmHg 88%
11:00 +21°C° 0.1 mm 2 m/s 727 mmHg 83%
12:00 +23°C° 0.1 mm 2 m/s 727 mmHg 77%
13:00 +23°C° 0.1 mm 2 m/s 727 mmHg 79%
14:00 +21°C° 0.1 mm 3 m/s 727 mmHg 80%
15:00 +21°C° 0.1 mm 3 m/s 726 mmHg 81%
16:00 +20°C° 0.4 mm 3 m/s 726 mmHg 86%
17:00 +19°C° 0.4 mm 3 m/s 726 mmHg 91%
18:00 +18°C° 0.4 mm 3 m/s 727 mmHg 96%
19:00 +17°C° 1.6 mm 3 m/s 727 mmHg 97%
20:00 +17°C° 1.6 mm 3 m/s 727 mmHg 97%
21:00 +17°C° 1.6 mm 3 m/s 728 mmHg 98%
22:00 +17°C° 0.9 mm 2 m/s 728 mmHg 98%
23:00 +16°C° 0.9 mm 2 m/s 728 mmHg 98%
Mostrar mais